Meteo Giornale » Osservazioni meteo Gran Bretagna » Inverness-Dalcross
ore: 20:50 - Osservazioni Meteo Inverness-Dalcross
Lat. 57° 32' N Lon. 4° 3' W Alt. 9 metri s.l.m.
13 °C
Poco Nuvoloso
Temp. 24 Ore
11 °C
18 °C
Sud-Ovest
18.5 Km/h
Dew point 7 °C
Umidità 66 %
Visibilità 10 Km
Il sole sorge alle ore 06:17
Il sole tramonta alle ore 20:14
| Data e Ora | Cielo e Fenomeni | T °C | DP °C | Um. % | Pres. hPa | Vis. km | Vento km/h | |
|---|---|---|---|---|---|---|---|---|
| Oggi h: 20:50 | Poco Nuvoloso | 13 | 7 | 66 | 1011 | 10 | SO 18.5 | |
| Oggi h: 20:20 | Nuvoloso | 13 | 7 | 66 | 1011 | 10 | SO 18.5 | |
| Oggi h: 19:50 | Nuvoloso | 13 | 7 | 66 | 1011 | 10 | SO 22.2 | |
| Oggi h: 19:20 | Nuvoloso | 14 | 7 | 62 | 1010 | 10 | SO 20.3 | |
| Oggi h: 18:50 | Nuvoloso | 15 | 7 | 58 | 1010 | 10 | O/SO 25.9 | |
| Oggi h: 18:20 | Nuvoloso | 16 | 6 | 51 | 1010 | 10 | O/SO 27.8 | |
| Oggi h: 17:50 | Nuvoloso | 17 | 6 | 48 | 1010 | 10 | O/SO 27.8 | |
| Oggi h: 17:20 | Nuvoloso | 16 | 7 | 55 | 1009 | 10 | O/SO 31.5 | |
| Oggi h: 16:50 | Nuvoloso | 16 | 8 | 58 | 1009 | 10 | O 20.3 | |
| Oggi h: 16:20 | Nuvoloso | 17 | 8 | 55 | 1009 | 10 | O 20.3 | |
| Oggi h: 15:50 | Nuvoloso | 16 | 8 | 58 | 1009 | 10 | O 25.9 | |
| Oggi h: 15:20 | Nuvoloso | 16 | 8 | 58 | 1008 | 10 | O 25.9 | |
| Oggi h: 14:50 | Nuvoloso | 17 | 8 | 55 | 1008 | 10 | O 27.8 | |
| Oggi h: 14:20 | Nuvoloso | 16 | 9 | 63 | 1008 | 10 | O 31.5 | |
| Oggi h: 13:50 | Pioggia nelle vicinanze | 17 | 11 | 67 | 1008 | 10 | O 27.8 | |
| Oggi h: 13:20 | Pioggia nelle vicinanze | 16 | 12 | 77 | 1008 | 10 | O 27.8 | |
| Oggi h: 12:50 | Pioggia nelle vicinanze | 17 | 13 | 77 | 1007 | 10 | O 24 | |
| Oggi h: 12:20 | Pioggia nelle vicinanze | 16 | 13 | 82 | 1007 | 10 | O 25.9 | |
| Oggi h: 11:50 | Pioggia | 16 | 14 | 87 | 1006 | 5 | O 35.2 | |
| Oggi h: 11:20 | Pioggia nelle vicinanze | 18 | 14 | 77 | 1005 | 5 | SO 35.2 | |
| Oggi h: 10:50 | Pioggia nelle vicinanze | 16 | 13 | 82 | 1005 | 10 | S/SO 38.8 | |
| Oggi h: 10:20 | Pioggia nelle vicinanze | 16 | 13 | 82 | 1005 | 10 | S/SO 22.2 | |
| Oggi h: 09:50 | Pioggia nelle vicinanze | 16 | 13 | 82 | 1005 | 10 | SO 22.2 | |
| Oggi h: 09:20 | Pioggia nelle vicinanze | 15 | 13 | 87 | 1006 | 10 | S/SO 16.7 | |
| Oggi h: 08:50 | Pioggia nelle vicinanze | 15 | 12 | 82 | 1006 | 10 | S/SO 24 | |
| Oggi h: 08:20 | Poco Nuvoloso | 14 | 11 | 82 | 1007 | 10 | N 3.7 | |
| Oggi h: 07:50 | Poco Nuvoloso | 14 | 11 | 82 | 1007 | 10 | N 3.7 | |
| Oggi h: 07:20 | Poco Nuvoloso | 14 | 10 | 76 | 1007 | 10 | S/SO 7.4 | |
| Oggi h: 06:50 | Nuvoloso | 13 | 10 | 81 | 1007 | 10 | N 5.5 | |
| Oggi h: 06:20 | Nuvoloso | 13 | 10 | 81 | 1008 | 10 | N 1.8 | |
| Oggi h: 05:50 | Sereno | 13 | 10 | 81 | 1008 | 10 | S/SO 18.5 | |
| Oggi h: 05:20 | Sereno | 11 | 9 | 87 | 1009 | 10 | N 3.7 | |
| Oggi h: 04:50 | Sereno | 12 | 9 | 81 | 1009 | 10 | N 5.5 | |
| Oggi h: 04:20 | Sereno | 12 | 9 | 81 | 1009 | 10 | S/SO 9.3 | |
| Oggi h: 03:50 | Poco Nuvoloso | 12 | 10 | 87 | 1010 | 10 | O/SO 11.1 | |
| Oggi h: 03:20 | Sereno | 12 | 10 | 87 | 1010 | 10 | SO 13 | |
| Oggi h: 02:50 | Sereno | 12 | 9 | 81 | 1010 | 10 | SO 9.3 | |
| Oggi h: 02:20 | Sereno | 12 | 10 | 87 | 1011 | 10 | N 5.5 | |
| Oggi h: 01:50 | Sereno | 12 | 9 | 81 | 1011 | 10 | N 1.8 | |
| Oggi h: 01:20 | Sereno | 12 | 9 | 81 | 1011 | 10 | N 0 | |
| Oggi h: 00:50 | Sereno | 11 | 9 | 87 | 1011 | 10 | N 1.8 | |
| Oggi h: 00:20 | Sereno | 11 | 9 | 87 | 1011 | 10 | N 3.7 | |
| Ieri h: 23:50 | Sereno | 12 | 10 | 87 | 1012 | 10 | SO 7.4 | |
| Ieri h: 23:20 | Sereno | 12 | 10 | 87 | 1012 | 10 | SO 9.3 | |
| Ieri h: 22:50 | Sereno | 12 | 10 | 87 | 1012 | 10 | N 5.5 | |
| Ieri h: 22:20 | Pioggia | 12 | 10 | 87 | 1012 | 10 | SO 9.3 | |
| Ieri h: 21:50 | Poco Nuvoloso | 13 | 9 | 76 | 1012 | 10 | SO 7.4 | |



